Zurück zum Katalog

FENGYUN 1C DEB

AktivSSO
NORAD 30565·DEBRIS·🇨🇳 China

Gestartet May 10, 1999 von Taiyuan Satellite Launch Center

Loading…

Nächste Überflüge (nächste 24 Stunden)

TLE

AktuellSource: Space-Track

Epoche: Sep 14, 2026, 22:13 UTC

1 30565U 99025ALF 26257.92621884  .00001964  00000-0  10102-2 0  9992
2 30565  98.4428 116.9390 0138422 287.5740 204.6409 14.11534424998211

Verfolge FENGYUN 1C DEB in Echtzeit mit AllMySat

Download on the App Store